Tracking 19252 objects as of 17-Oct-2018
HD Live streaming from Space Station
objects crossing your sky now

METEOR 1-27

Track METEOR 1-27 now!
10-day predictions
METEOR 1-27 is classified as:


NORAD ID: 9903
Int'l Code: 1977-024A
Perigee: 845.4 km
Apogee: 899.6 km
Inclination: 81.3 °
Period: 102.3 minutes
Semi major axis: 7243 km
RCS: 4.395 m2 (large)
Launch date: April 5, 1977
Source: Commonwealth of Independent States (former USSR) (CIS)
Launch site: PLESETSK MISSILE AND SPACE COMPLEX (PKMTR)
aabbcc
Your satellite tracking list
Your tracking list is empty




NASA's NSSDC Master Catalog

Two Line Element Set (TLE):
1  9903U 77024A   18289.68539913 -.00000141 +00000-0 -89159-4 0  9997
2  9903 081.2529 330.5385 0037424 354.8951 005.1831 14.08247920133352
Source of the keplerian elements: AFSPC